Погода Петропавловск-Камч.

Погода Петропавловск-Камч. : погода сейчас, прогноз погоды и архив. Всё, что Вы хотите узнать о погоде Петропавловск-Камч.!

Хотите узнать прогноз погоды Петропавловск-Камч.? Тогда Вам сюда: Погода Петропавловск-Камч.

Поиск расширенной информации на нашем сайте:

Другие новости

Новости СМИ2

Главная страница сайта

Новости сайта

03.07.2017

Напоминаем, что на нашем специализированном сайте Метеоцентр.Азия вы можете получить высокодетализированные автоматические прогнозы погоды по пунктам России, СНГ и мира в авиационном формате (включающие направление и скорость ветра, видимость, явления погоды, количество и форму облачности, нижнюю и верхнюю границу облачности).


Погода Петропавловск-Камч. - сегодня

Время (UTC), дата Ветер
(°,м/с) 
Видим.   Явления Облачность Т
(°С)
Тd
(°С)
f(%) Тe
(°С)
Pmin
(гПа)
dP
(гПа)
Po
(мм)
O2
(г/м3)
Тmin Tmax R s Состояние
почвы
09 22.11.17 270 (З) 20000 м    8/6 600 м средняя, верхняя 
[Sc|Ac trans|Ci fib]
-3.2 -10.8 56 -5  1018.2  2.9  761  311    -2.7       
12 22.11.17 050 (СВ) 20000 м    1/1 600 м 
[Sc]
-4.3 -11.7 56 -6  1020.3  763  313           
15 22.11.17 090 (В) 20000 м    3/1 600 м средняя 
[Sc|Ac trans]
-3.6 -12.4 50 -3  1021.2  0.9  764  313           
18 22.11.17 140 (ЮВ) 20000 м    9/3 600 м средняя, верхняя 
[Sc|Ac trans|Ci fib]
-2.9 -8.5 65 -2  1021.6  0.4  764  312           
21 22.11.17 340 (С) 20000 м    9/3 600 м средняя, верхняя 
[Sc|Ac trans|Ci fib]
-3.5 -6.9 77 -5  1021.5  0.1  764  313  -4.7         
00 23.11.17 330 (СЗ) 20000 м    10/3 600 м средняя 
[Sc|Ac As]
-2.5 -6.7 73 -4  1021.5  0.1  764  311           
03 23.11.17 330 (СЗ) 20000 м  {ливн. осадки}  10/6 600 м средняя 
[Sc|Ac As]
-1.9 -5.1 79 -3  1019.9  -1.5  763  310           
06 23.11.17 тихо ()   10 км  {ливн. осадки}  10/10 300 м 
[Sc]
-1.1 -3.5 84 -1  1019.4  -0.5  762  309           
09 23.11.17 150 (ЮВ) 8-14{15}  10 км    10/10 300 м 
[St]
+3.3 +0.5 82 1017.3  -2  761  303    +3.3  0.0     
12 23.11.17 150 (ЮВ) 11-20{20}  10 км    10/10 300 м 
[St]
+3.5 +0.6 81 -1  1016.3  -0.9  760  302           
15 23.11.17 150 (ЮВ) 12-17{21}  10 км    10/10 300 м 
[St]
+3.8 +0.6 80 -1  1014.3  -2  758  301           
18 23.11.17 150 (ЮВ) 13-20{22}  10 км  в посл. час ливневой дождь  10/10 300 м кучево-дожд. 
[Cb cap]
+3.6 +0.8 82 -1  1012  -2.3  757  301           
21 23.11.17 130 (ЮВ) 8-16{22}  10 км  слаб. ливневой дождь  10/10 300 м кучево-дожд. 
[Cb cap]
+3.7 +1.3 84 1009.8  -2.2  755  300  +3.2    0.5     
00 24.11.17 130 (ЮВ) 8-17{21}  2000 м  слаб. ливневой дождь  10/10 300 м кучево-дожд. 
[Cb cap]
+3.8 +2.1 89 1005.2  -4.5  752  298           
03 24.11.17 130 (ЮВ) 13-23{25}  2000 м  ливневой дождь  10/10 300 м кучево-дожд. 
[Cb cap]
+3.7 +1.7 87 -1  994.3  -10.9  743  295           
06 24.11.17 160 (Ю) 3{32}  4000 м  в посл. час ливневой дождь  10/8 300 м верхняя 
[Sc|Ci fib]
+4.7 +1.9 82 +4  991.3  -3  741  293           
09 24.11.17 220 (ЮЗ) 4{14}  20000 м    3/1 600 м верхняя 
[Sc|Ci fib]
+3 -2.7 66 +1  996.8  5.5  745  297    +5.8  19     
12 24.11.17 230 (ЮЗ) 4{11}  20000 м    9/3 600 м средняя, верхняя 
[Sc|Ac trans|Ci fib]
+2.2 -5.4 57 998.8  1.9  747  299           
15 24.11.17 260 (З) 3{13}  20000 м    4/1 600 м средняя, верхняя 
[Sc|Ac trans|Ci fib]
-0 -7.1 59 -2  1000.4  1.6  748  302           
18 24.11.17 220 (ЮЗ) 20000 м    1/1 600 м 
[Sc]
-0.6 -6.1 66 -1  1001.5  1.1  749  303           
21 24.11.17 210 (ЮЗ) 2{11}  10 км  осадки на расстоянии  3/3 600 м кучево-дожд. 
[Cb cap]
-1.1 -8 59 -2  1003.3  1.8  750  304  -1.3         
00 25.11.17 200 (Ю) 10 км  осадки на расстоянии  3/3 600 м кучево-дожд. 
[Cb cap]
-0.4 -8.6 54 -1  1004.9  1.5  751  304  -1.7         
03 25.11.17 340 (С) 10 км  {ливн. осадки}  3/3 600 м кучево-дожд. 
[Cb cap]
-1 -5.6 71 -3  1004.4  -0.5  751  304           
06 25.11.17 230 (ЮЗ) 10 км  в посл. час ливневой снег  8/8 600 м кучево-дожд. 
[Cb cap]
-1.3 -6.8 66 -1  1004.3  0.1  751  305           
09 25.11.17 240 (ЮЗ) 20000 м    3/3 1000 м 
[Sc]
-2.1 -6.8 70 -3  1003.5  -0.8  750  305    +0.3  0.0     
Время (UTC), дата Ветер
(°,м/с) 
Видим.   Явления Облачность Т
(°С)
Тd
(°С)
f(%) Тe
(°С)
Pmin
(гПа)
dP
(гПа)
Po
(мм)
O2
(г/м3)
Тmin Tmax R s Состояние
почвы

Для получения пояснительной информации подведите курсор к названию столбца.

ПОГОДА Петропавловск-Камч. - архив

Всё, что Вы хотите узнать о погоде Петропавловск-Камч. - удобно и подробно!

Выберите нужную дату (начиная с 1 января 2015* года) и нажмите кнопку "Найти".
Будут отображены архивные сводки погоды по пункту Петропавловск-Камч., начиная с указанной даты.


Отображать данные в формате CSV (для использования в таблицах Excel)


Внимание! Наш архив погоды предназначен исключительно для личного некоммерческого использования в познавательных целях. Если Вам необходимы официальные справки о состоянии погоды (для производственных, юридических, коммерческих и т.п. целей), обращайтесь в органы Росгидромета.

*Примечание: данная дата относится к архиву по метеостанциям СССР (Россия, СНГ, Балтия).
Архив по метеостанциям Зарубежной Европы и Азии (кроме Китая) хранится 10 дней, по другим регионам земного шара (Китай, Африка, Америка, Австралия, Океания) - 1 день.

Петропавловск-Камч. - район местоположения метеостанции


Название, широта, долгота, высота метеостанции:
Петропавловск-Камч. (обсерватория) 53°ш. 158.6°д. 24 м над ур. моря [Российская Федерация]

Дополнительная информация

В oтличие oт бoльшинства пoгoдных сайтoв мы публикуем пoдрoбную метеoинфoрмацию в детальнoм прoфессиoнальнoм фoрмате.

Характеристики температуры и влажнoсти вoздуха измеряются на высoте 2 м в тени вдали oт зданий и деревьев.
Скoрoсть ветра измеряется на высoте 10 м (на урoвне рoста челoвека скoрoсть ветра ниже в 1.5-2 раза). Если метеoстанция нахoдится в гoрoде или в лесу, тo скoрoсть ветра занижена на 2-4 м/с пo сравнению с oткрытым местoм. Скoрoсть ветра над акватoриями крупных рек и oзёр, а также на вершинах хoлмoв на 2-5 м/с выше, чем в oбычных услoвиях.
Атмoсфернoе давление в разных тoчках местнoсти мoжет значительнo oтличаться oт давления на метеoстанции, в зависимoсти oт услoвий рельефа (при пoдъёме на 10 м давление пoнижается примернo на 1 мм рт.ст.).